Regional Weather Roundup
Issued by NWS Albany, NY

Home | Current Version | Previous Version | Text Only | Print | Product List | Glossary On
Versions: 1 2 3 4 5 6 7 8 9 10 11 12 13 14 15 16 17 18 19 20 21 22 23 24 25 26 27 28 29 30 31 32 33 34 35 36 37 38 39 40 41 42 43 44 45 46 47 48 49 50
000
ASUS41 KALY 281110
RWRALY

NEW YORK STATE HOURLY WEATHER ROUNDUP
NATIONAL WEATHER SERVICE ALBANY NY
700 AM EDT SAT MAY 28 2016

NOTE: "FAIR" INDICATES FEW OR NO CLOUDS BELOW 12,000 FEET WITH NO
SIGNIFICANT WEATHER AND/OR NO OBSTRUCTIONS TO VISIBILITY.

NYZ032-033-038>043-046>054-057>066-NYZ062>081-082-084-281200-
EAST


CITY           SKY/WX    TMP DP  RH WIND       PRES   REMARKS
ALBANY         MOSUNNY   71  67  87 CALM      30.09R
GLENS FALLS    SUNNY     67  63  87 CALM      30.08R
POUGHKEEPSIE   MOSUNNY   70  66  87 CALM      30.08S
NEWBURGH       MOSUNNY   70  70 100 W6        30.12R
MONTGOMERY     MOSUNNY   68  66  93 S3        30.10S FOG
WHITE PLAINS   SUNNY     71  62  73 CALM      30.12R
ISLIP          MOSUNNY   67  59  75 SW7       30.12R
NEW YORK CITY  MOSUNNY   74  63  68 SW8       30.11R
CENTRAL PARK   MOSUNNY   72  58  61 W8G17     30.14R
$$

NYZ005>009-017-018-044>046-055-056-281200-
CENTRAL


CITY           SKY/WX    TMP DP  RH WIND       PRES   REMARKS
FULTON         SUNNY     68  66  93 E3        30.09R FOG
SYRACUSE       MOSUNNY   67  65  93 E3        30.08R
ROME           SUNNY     65  64  97 CALM      30.11R FOG
ELMIRA         SUNNY     63  61  93 CALM      30.13R FOG
BINGHAMTON     SUNNY     66  64  93 CALM      30.14R
MONTICELLO     SUNNY     64  63  94 CALM      30.16R
$$

NYZ026>034-041>043-087-281200-
NORTH


CITY           SKY/WX    TMP DP  RH WIND       PRES   REMARKS
WATERTOWN      CLOUDY    66  65  96 CALM      30.07R FOG
FORT DRUM      NOT AVBL
MASSENA        CLOUDY    67  64  90 SW5       30.07R FOG
SARANAC LAKE   SUNNY     63  61  93 CALM      30.12S FOG
PLATTSBURGH    SUNNY     70  65  84 CALM      30.06R
$$

NYZ001>004-010>016-019>021-085-281200-
WEST


CITY           SKY/WX    TMP DP  RH WIND       PRES   REMARKS
NIAGARA FALLS  SUNNY     65  61  87 CALM      30.06R FOG
BUFFALO        PTSUNNY   68  62  81 SE6       30.08R
DUNKIRK        SUNNY     73  63  70 S7        30.08R
JAMESTOWN      MOSUNNY   64  59  82 S5        30.14R
WELLSVILLE     SUNNY     64  61  90 CALM      30.18R FOG
ROCHESTER      MOSUNNY   68  64  87 SW6       30.09R
PENN YAN       SUNNY     67  63  87 SW7       30.11R
$$

             KEY
       WCI = WIND CHILL INDEX
       VSB = VISIBILITY
       HX  = HEAT INDEX
$$



USA.gov is the U.S. government's official web portal to all federal, state and local government web resources and services.